Weather in Naddnistrianske

Ukraine / Vinnytsia Region     48°38′40″N   27°25′24″E
temp.,
°C
wind,
m/s
gust,
m/s
humid.,
%
clouds,
%
prec.,
mm/h
press.,
hPa
HPBL,
m
11 may, tue
tue1100:00+10ese35760 0.0 102268
03:00+8ese36800 0.0 1022100
06:00+7ese36780 0.0 102286
09:00+13ese45590 0.0 1022396
12:00+17ese34400 0.0 10211111
15:00+19se34444 0.0 10191225
18:00+19e45544 0.0 10181378
21:00+14e47800 0.0 101792
12 may, wed
wed1200:00+12ene34903 0.0 101758
03:00+11ene23944 0.0 101535
06:00+10e499846 0.0 1015256
09:00+11e787636 0.0 1015694
12:00+14e66543 0.0 10141321
15:00+16e765175 0.0 10131833
18:00+13e765731 0.0 10131190
21:00+8e48759 0.0 1013158
13 may, thu
thu1300:00+7e35753 0.0 101269
03:00+6ese367929 0.0 1011100
06:00+8se4975100 0.0 1009325
09:00+8ese61287100 0.1 1009585
12:00+9se71289100 0.5 1008819
15:00+14sse71277100 0.6 10061224
18:00+14sse81281100 0.3 10061010
21:00+12sse61295100 1.1 1007647
14 may, fri
fri1400:00+11sse5119399 1.1 1006525
03:00+10se369496 1.4 1006171
06:00+9se22965 0.0 100627
09:00+14s4578100 0.0 1007383
12:00+18s4561100 0.3 1007972
15:00+19s565962 1.8 10071601
18:00+18sw4567100 2.6 1007982
21:00+13wnw4986100 5.2 1008177
15 may, sat
sat1500:00+10nw4119174 0.0 1010220
03:00+9wnw398919 0.0 1011203
06:00+8wnw36915 0.0 1012114
09:00+13w367586 0.0 1012479
12:00+17w355580 0.0 10131514
15:00+19w244964 0.0 10121904
18:00+18se116186 0.0 101116
21:00+14e227211 0.0 101213